Location: Unspecified
(56.5167°N, 0.0000°E)
Time: 10:23:27
(UTC+01:00)

ISS - Visible Passes

Search period start: 28 March 2015 00:00
Search period end: 07 April 2015 01:00
Orbit: 396 x 406 km, 51.6° (Epoch: 28 March)

Date Brightness Start Highest point End Pass type
(mag) Time Alt. Az. Time Alt. Az. Time Alt. Az.
28 Mar -1.7 04:34:08 22° SSE 04:34:08 22° SSE 04:35:55 10° SE visible
29 Mar -1.5 06:15:44 15° SSW 06:15:44 15° SSW 06:17:39 10° S visible
30 Mar -0.7 05:24:54 11° SSE 05:24:54 11° SSE 05:24:59 10° SSE visible
05 Apr -0.8 23:06:20 10° SW 23:06:41 12° SSW 23:06:41 12° SSW visible
06 Apr -1.8 22:13:15 10° SSW 22:15:36 18° SSE 22:15:53 18° SSE visible
06 Apr -0.5 23:48:26 10° WSW 23:48:30 10° WSW 23:48:30 10° WSW visible
